Regional Weather Roundup
Issued by NWS Lake Charles, LA

Home | Current Version | Previous Version | Text Only | Print | Product List | Glossary On
Versions: 1 2 3 4 5 6 7 8 9 10 11 12 13 14 15 16 17 18 19 20 21 22 23 24 25 26 27 28 29 30 31 32 33 34 35 36 37 38 39 40 41 42 43 44 45 46 47 48 49 50
000
ASUS44 KLCH 280310
RWRLCH
RWRLCH
REGIONAL WEATHER ROUNDUP
NATIONAL WEATHER SERVICE LAKE CHARLES LA
1000 PM CDT THU AUG 27 2015

Note: "fair" indicates few or no clouds below 12,000 feet with no
significant weather and/or obstructions to visibility.


ACROSS SOUTHEAST TEXAS

CITY           SKY/WX    TMP DP  RH WIND       PRES   REMARKS
BEAUMONT       PTCLDY    76  68  76 N3        29.98R
BEAUMONT CITY    N/A     73  71  93 NW3       30.00R
ORANGE         CLEAR    N/A N/A N/A CALM      30.00S
JASPER         PTCLDY    73  69  85 CALM      30.03R
$$

ACROSS CENTRAL LOUISIANA

CITY           SKY/WX    TMP DP  RH WIND       PRES   REMARKS
LEESVILLE      CLEAR     71  65  80 N6        30.00R
FULLERTON        N/A     70  60  70 CALM      29.99R
ALEXANDRIA INT CLEAR     73  57  57 NE6       30.00R
ESLER FIELD    CLEAR     68  59  73 CALM      30.02R
DERIDDER         N/A     72  64  74 CALM      30.02R
OAKDALE          N/A     66  64  94 CALM      30.00R
OPELOUSAS        N/A     66  63  92 E3        30.00R
$$

ACROSS SOUTHWEST AND SOUTH CENTRAL LOUISIANA

CITY           SKY/WX    TMP DP  RH WIND       PRES   REMARKS
SULPHUR        CLEAR     75  66  75 CALM      30.00R
LAKE CHARLES   CLEAR     72  68  87 CALM      29.99R
CHENNAULT INT  CLEAR     75  66  73 CALM      30.00R
CAMERON PHI    CLEAR     77  64  65 E5        30.02R
DEQUINCY         N/A     71  67  88 E3        30.00R
JENNINGS         N/A     74  64  72 CALM      29.99R
LAFAYETTE      CLEAR     71  67  87 CALM      29.99R
NEW IBERIA     CLEAR     70  63  78 CALM      30.00R
ABBEVILLE        N/A     67  62  86 CALM      30.00R
PATTERSON      CLEAR     70  64  83 CALM      30.01R
SALT POINT       N/A     74  63  68 CALM      29.98R
$$

SELECTED SITES ACROSS THE REGION

CITY           SKY/WX    TMP DP  RH WIND       PRES   REMARKS
HOUSTON BUSH   PTCLDY    76  67  73 CALM      29.99R
HOUSTON HOBBY    N/A     78  68  71 S3        29.99R
GALVESTON      CLEAR     81  68  64 SE5       30.00R
COLLEGE STAT   MOCLDY    81  67  62 CALM      30.00R
CONROE         CLEAR     72  67  84 CALM      30.01R
HUNTSVILLE     PTCLDY    79  61  53 CALM      30.01R
LUFKIN         CLEAR     77  63  61 NE3       30.01R
SHREVEPORT     PTCLDY    78  64  61 N5        30.03R
MONROE         CLEAR     72  59  63 E6        30.03R
NATCHEZ MS     CLEAR     68  59  73 CALM      30.03R
BATON ROUGE    CLEAR     74  60  61 VRB3      29.99R
N.O. INTL ARPT CLEAR     78  62  57 SE6       29.99R
SLIDELL        CLEAR     70  67  90 CALM      29.99R
$$

MARINE REPORTS

STATION/POSITION TIME  TEMP    WIND        PRES    VSBY  WAVE
                       AIR SEA DIR/SP/G                  HT/PER
                 (UTC) (F)     (DEG/KT/KT) (MB)    (MI)  (FT/S)
BUOY 30 S HIGH I 0250   84 86  170/  4/  4 1015.3R         1/ 4
SEA RIM ST PARK  0300   81     290/  1/  1 1016.1R
PORT ARTHUR      0200      86   60/  2/  2 1015.1R
SABINE PASS N    0200   82 86   CALM  /  1 1015.3R
TEXAS POINT      NOT AVBL
CALCASIEU PASS   0200   83 85  100/  9/  9 1014.3R
LK CHARLES BEACH 0200   81 87                N/A
MARSH ISLAND     0200   83      60/ 11/ 13   N/A           0
FRESH WATER LOCK 0200   76 85   70/  4/  5 1015.3R
AMERADA PASS     0200   78 85   CALM  /  2 1015.3R
$$


USA.gov is the U.S. government's official web portal to all federal, state and local government web resources and services.